FW1286 Weather Reports


Display with metric or nautical units.
time (UTC)temp
F
wind
direction
speed
MPH
gust
MPH
rain 1hr
in
rain 24hr
in
rain mn
in
humidity
%
barometer
mb
20260510043301 73 109 0.0 3.0 0.00 0.56 0.57 87 1009.5
20260510042227 73 109 0.0 1.0 0.00 0.56 0.57 86 1009.6
20260510041230 74 109 0.0 0.0 0.00 0.56 0.57 84 1009.6
20260510040157 74 109 0.0 0.0 0.00 0.56 0.57 84 1009.6
20260510035150 75 109 0.0 0.0 0.00 0.56 0.57 83 1009.4
20260510034124 75 86 0.0 4.0 0.00 0.56 0.57 83 1009.4
20260510025637 75 80 0.0 4.0 0.00 0.56 0.57 83 1008.9
20260510024609 75 63 0.0 3.0 0.00 0.56 0.57 83 1008.8
20260510023629 76 63 0.0 1.0 0.00 0.56 0.57 83 1008.8
20260510022652 76 63 0.0 1.0 0.00 0.56 0.57 82 1008.5
20260510021656 76 63 0.0 0.0 0.00 0.56 0.57 82 1008.4
20260510014427 79 63 0.0 3.0 0.00 0.56 0.57 78 1007.9
20260510013416 79 89 1.0 3.0 0.00 0.56 0.57 77 1007.8
20260510011317 81 117 1.0 5.0 0.00 0.56 0.57 73 1007.4
20260510010302 82 74 1.0 5.0 0.00 0.56 0.57 70 1007.4
20260510005306 84 44 0.0 2.0 0.00 0.56 0.57 69 1007.3
20260510004237 85 44 0.0 1.0 0.00 0.56 0.57 69 1007.2
20260510003230 87 43 0.0 0.0 0.00 0.56 0.57 67 1007.1
20260510002201 87 43 0.0 2.0 0.00 0.56 0.57 64 1007.1
20260510001140 88 43 0.0 3.0 0.00 0.56 0.57 63 1007.1
20260510000157 88 43 0.0 3.0 0.00 0.56 0.57 59 1007.1
20260509234111 88 175 1.0 5.0 0.00 0.56 0.57 58 1007.0
20260509233135 88 175 2.0 5.0 0.00 0.56 0.57 59 1007.0
20260509232124 90 175 1.0 5.0 0.00 0.56 0.57 60 1006.9
20260509231134 90 87 0.0 3.0 0.00 0.56 0.57 57 1006.9
20260509225126 89 264 1.0 4.0 0.00 0.56 0.57 58 1006.8
20260509224147 89 265 1.0 4.0 0.00 0.56 0.57 60 1006.8
20260509223121 88 265 2.0 4.0 0.00 0.56 0.57 59 1006.9
20260509222134 89 265 2.0 6.0 0.00 0.56 0.57 59 1006.9
20260509221149 89 203 1.0 6.0 0.00 0.56 0.57 58 1006.9
20260509220141 89 203 1.0 5.0 0.00 0.56 0.57 59 1007.0
20260509215135 89 38 0.0 5.0 0.00 0.56 0.57 60 1007.2
20260509214129 88 74 2.0 5.0 0.00 0.56 0.57 59 1007.2
20260509213059 89 31 1.0 5.0 0.00 0.56 0.57 59 1007.4
20260509212104 88 16 1.0 4.0 0.00 0.56 0.57 58 1007.4
20260509211035 88 78 2.0 5.0 0.00 0.56 0.57 59 1007.5
20260509210056 88 67 1.0 5.0 0.00 0.56 0.57 59 1007.6
20260509205027 88 236 1.0 6.0 0.00 0.56 0.57 59 1007.8
20260509204049 87 236 2.0 6.0 0.00 0.56 0.57 58 1008.0
20260509203018 87 51 1.0 6.0 0.00 0.56 0.57 57 1008.3
20260509201945 86 115 3.0 6.0 0.00 0.56 0.57 58 1008.5
20260509200925 86 9 2.0 5.0 0.00 0.56 0.57 56 1008.5
20260509195859 86 10 2.0 5.0 0.00 0.56 0.57 53 1008.6
20260509194904 85 28 2.0 6.0 0.00 0.56 0.57 58 1008.7
20260509193839 84 80 2.0 6.0 0.00 0.56 0.57 58 1008.9
20260509192821 83 71 1.0 4.0 0.00 0.56 0.57 62 1008.9
20260509191832 82 21 1.0 4.0 0.00 0.56 0.57 66 1009.1
20260509190802 79 40 1.0 4.0 0.00 0.56 0.57 73 1009.3
20260509184637 74 65 2.0 5.0 0.00 0.56 0.57 93 1009.5
20260509183653 74 38 1.0 4.0 0.00 0.56 0.57 96 1009.6
20260509182621 73 355 1.0 4.0 0.00 0.56 0.57 95 1009.9
20260509181634 71 146 0.0 1.0 0.00 0.56 0.57 91 1010.0
20260509180623 71 102 1.0 7.0 0.00 0.55 0.55 92 1010.4
20260509175622 70 121 2.0 18.0 0.06 0.55 0.55 91 1010.5
20260509173440 78 29 3.0 9.0 2.15 0.19 0.21 86 1010.7
20260509172430 81 67 2.0 7.0 0.00 0.00 0.00 79 1010.3
20260509171408 82 111 1.0 6.0 0.00 0.00 0.00 76 1010.2
20260509170335 83 188 1.0 7.0 0.00 0.00 0.00 71 1010.2
20260509165317 84 190 3.0 7.0 0.00 0.00 0.00 70 1010.2
20260509164300 83 171 3.0 7.0 0.00 0.00 0.00 72 1010.4
20260509163316 83 104 3.0 9.0 0.00 0.00 0.00 73 1010.4
20260509162330 83 215 3.0 9.0 0.00 0.00 0.00 72 1010.3
20260509161338 83 230 1.0 6.0 0.00 0.00 0.00 73 1010.2
20260509160318 82 165 3.0 6.0 0.00 0.00 0.00 73 1010.2
20260509152945 81 338 3.0 8.0 0.00 0.00 0.00 79 1010.1
20260509151918 80 181 5.0 13.0 0.00 0.00 0.00 80 1009.7
20260509150847 80 194 7.0 13.0 0.00 0.00 0.00 81 1009.5
20260509145842 79 194 6.0 10.0 0.00 0.00 0.00 83 1009.8
20260509144815 78 185 6.0 10.0 0.00 0.00 0.00 84 1010.1
20260509143827 77 192 5.0 11.0 0.00 0.00 0.00 87 1009.7
20260509142845 77 136 6.0 11.0 0.00 0.00 0.00 89 1009.4
20260509141833 75 173 3.0 7.0 0.00 0.00 0.00 91 1009.5
20260509140841 75 189 4.0 8.0 0.00 0.00 0.00 93 1009.6
20260509134731 72 150 4.0 8.0 0.00 0.00 0.00 97 1009.7
20260509133744 71 168 2.0 6.0 0.00 0.00 0.00 98 1009.4
20260509132742 70 127 2.0 6.0 0.00 0.00 0.00 98 1009.2
20260509131749 70 167 2.0 6.0 0.00 0.00 0.00 97 1008.9
20260509130743 69 140 2.0 6.0 0.00 0.00 0.00 97 1008.9
20260509125721 69 121 3.0 6.0 0.00 0.00 0.00 97 1009.0
20260509124741 69 126 1.0 5.0 0.00 0.00 0.00 97 1009.3
20260509123744 69 177 1.0 4.0 0.00 0.00 0.00 97 1009.4
20260509122752 69 129 1.0 4.0 0.00 0.00 0.00 97 1009.2
20260509121801 68 155 0.0 3.0 0.00 0.00 0.00 97 1009.6
20260509120744 68 135 0.0 3.0 0.00 0.00 0.00 96 1009.5
20260509115745 68 136 0.0 6.0 0.00 0.00 0.00 96 1009.6
20260509114717 68 136 1.0 3.0 0.00 0.00 0.00 96 1009.6
20260509112514 69 267 1.0 0.0 0.00 0.00 0.00 96 1010.3
20260509111445 70 267 2.0 6.0 0.00 0.00 0.00 96 1010.9
20260509105308 70 302 1.0 4.0 0.00 0.00 0.00 96 1011.2
20260509104244 71 324 1.0 4.0 0.00 0.00 0.00 96 1011.1
20260509103257 71 324 1.0 0.0 0.00 0.00 0.00 96 1011.3
20260509101153 71 306 0.0 0.0 0.00 0.00 0.00 96 1010.8
20260509100143 71 306 0.0 2.0 0.00 0.00 0.00 96 1010.9
20260509095159 71 306 0.0 1.0 0.00 0.01 0.00 96 1010.6
20260509094210 71 306 0.0 1.0 0.00 0.02 0.00 96 1010.4
20260509093143 71 306 1.0 6.0 0.00 0.02 0.00 96 1010.1
20260509092115 71 300 2.0 6.0 0.00 0.02 0.00 96 1010.1
20260509091135 71 165 0.0 1.0 0.00 0.02 0.00 95 1009.7
20260509090116 71 165 0.0 0.0 0.00 0.02 0.00 95 1009.6
20260509085135 71 165 0.0 0.0 0.00 0.02 0.00 95 1009.7
20260509084120 72 165 0.0 0.0 0.00 0.02 0.00 95 1009.8
20260509083141 72 110 0.0 4.0 0.00 0.02 0.00 95 1009.8
20260509082128 71 145 0.0 3.0 0.00 0.02 0.00 95 1010.0
20260509081130 71 37 0.0 0.0 0.00 0.02 0.00 95 1010.1
20260509080145 71 37 0.0 0.0 0.00 0.02 0.00 94 1010.0
20260509075125 71 37 0.0 0.0 0.00 0.02 0.00 94 1010.2
20260509074121 72 37 0.0 0.0 0.00 0.02 0.00 95 1010.5
20260509073118 72 37 0.0 0.0 0.00 0.02 0.00 95 1010.6
20260509072046 72 37 0.0 0.0 0.00 0.02 0.00 94 1010.8
20260509065912 72 37 0.0 0.0 0.00 0.02 0.00 94 1010.3
20260509064936 72 37 0.0 0.0 0.00 0.02 0.00 94 1010.4
20260509063951 72 37 0.0 0.0 0.00 0.02 0.00 94 1010.4
20260509063002 72 37 0.0 0.0 0.00 0.02 0.00 94 1010.7
20260509062018 72 37 0.0 0.0 0.00 0.02 0.00 94 1010.9
20260509061010 72 37 0.0 0.0 0.00 0.02 0.00 94 1010.5
20260509054834 72 37 0.0 0.0 0.00 0.02 0.00 93 1010.7
20260509053828 72 37 0.0 0.0 0.00 0.02 0.00 93 1010.2
20260509052815 72 37 0.0 1.0 0.00 0.02 0.00 93 1009.6
20260509051806 72 37 0.0 0.0 0.00 0.02 0.00 93 1009.2
20260509050733 72 37 0.0 0.0 0.00 0.02 0.00 93 1009.1
20260509045701 72 37 0.0 0.0 0.00 0.02 0.02 93 1008.9
20260509044651 72 69 0.0 5.0 0.00 0.02 0.02 92 1008.9